,,,PA_Meas_PMT16A,,PR_Meas_QMR101_102,,RH_Meas_QMH101,,SR_Meas_QMS101,,TA_Meas_QMH101,,GenWind,,GenWind,
date,time,status,PA,status,PR,status,RH,status,SR,status,TA,status,DirAvg,status,SpdAvg,
2008-06-29, 06:45:04,VALID,1005.48,VALID,0,VALID,96.3146,VALID,23.934,VALID,23.6275,VALID,10,VALID,0.398438,
2008-06-29, 06:46:04,VALID,1005.47,VALID,0,VALID,96.2688,VALID,30.5711,VALID,23.6682,VALID,10,VALID,0.526953,
2008-06-29, 06:47:04,VALID,1005.49,VALID,0,VALID,96.2231,VALID,30.37,VALID,23.7248,VALID,10,VALID,0.4,
2008-06-29, 06:48:04,VALID,1005.54,VALID,0,VALID,96.1697,VALID,29.9678,VALID,23.8434,VALID,4,VALID,0.566016,
2008-06-29, 06:49:04,VALID,1005.55,VALID,0,VALID,96.0476,VALID,29.9678,VALID,23.8805,VALID,2,VALID,0.491406,
2008-06-29, 06:50:04,VALID,1005.61,VALID,0,VALID,95.9866,VALID,30.4706,VALID,23.9973,VALID,2,VALID,0.534375,
2008-06-29, 06:51:04,VALID,1005.62,VALID,0,VALID,96.0247,VALID,31.7779,VALID,24.1726,VALID,2,VALID,0.612109,
2008-06-29, 06:52:04,VALID,1005.64,VALID,0,VALID,95.8493,VALID,33.588,VALID,24.2681,VALID,2,VALID,0.492969,
2008-06-29, 06:53:04,VALID,1005.63,VALID,0,VALID,95.834,VALID,36.4038,VALID,24.4257,VALID,2,VALID,0.374609,
2008-06-29, 06:54:04,VALID,1005.68,VALID,0,VALID,95.8035,VALID,40.1246,VALID,24.562,VALID,2,VALID,0.288281,
2008-06-29, 06:55:04,VALID,1005.68,VALID,0,VALID,95.5822,VALID,45.2533,VALID,24.6593,VALID,2,VALID,0.354297,
2008-06-29, 06:56:04,VALID,1005.68,VALID,0,VALID,95.5975,VALID,51.6894,VALID,24.8346,VALID,2,VALID,0.1375,
2008-06-29, 06:57:04,VALID,1005.69,VALID,0,VALID,95.4373,VALID,58.3265,VALID,24.9709,VALID,2,VALID,0.0710938,
2008-06-29, 06:58:04,VALID,1005.67,VALID,0,VALID,95.3839,VALID,128.419,VALID,25.1851,VALID,2,VALID,0.0902344,
2008-06-29, 06:59:04,VALID,1005.67,VALID,0,VALID,95.1474,VALID,206.355,VALID,25.339,VALID,342,VALID,0.103125,
2008-06-29, 07:00:04,VALID,1005.69,VALID,0,VALID,94.7431,VALID,215.506,VALID,25.4772,VALID,341,VALID,0.147656,
2008-06-29, 07:01:04,VALID,1005.68,VALID,0,VALID,94.5218,VALID,214.501,VALID,25.672,VALID,341,VALID,0.0230469,
2008-06-29, 07:02:04,VALID,1005.69,VALID,0,VALID,93.8047,VALID,213.093,VALID,25.8083,VALID,341,VALID,0.0578125,
2008-06-29, 07:03:04,VALID,1005.68,VALID,0,VALID,92.874,VALID,214.4,VALID,25.9057,VALID,339,VALID,0.216797,
2008-06-29, 07:04:04,VALID,1005.71,VALID,0,VALID,92.0882,VALID,173.471,VALID,25.9836,VALID,280,VALID,0.616016,
2008-06-29, 07:05:04,VALID,1005.72,VALID,0,VALID,91.2338,VALID,159.593,VALID,26.0012,VALID,285,VALID,1.02656,
2008-06-29, 07:06:04,VALID,1005.7,VALID,0,VALID,91.333,VALID,214.702,VALID,26.0226,VALID,284,VALID,0.258203,
2008-06-29, 07:07:04,VALID,1005.76,VALID,0,VALID,90.5548,VALID,126.91,VALID,26.0616,VALID,284,VALID,0.893359,
2008-06-29, 07:08:04,VALID,1005.77,VALID,0,VALID,90.6082,VALID,216.311,VALID,26.0596,VALID,291,VALID,1.09453,
2008-06-29, 07:09:04,VALID,1005.79,VALID,0,VALID,90.5167,VALID,216.11,VALID,26.1005,VALID,284,VALID,0.227734,
2008-06-29, 07:10:04,VALID,1005.84,VALID,0,VALID,89.6012,VALID,218.121,VALID,26.1005,VALID,272,VALID,0.50625,
2008-06-29, 07:11:04,VALID,1005.89,VALID,0,VALID,89.4868,VALID,222.847,VALID,26.12,VALID,343,VALID,0.73125,
2008-06-29, 07:12:04,VALID,1005.91,VALID,0,VALID,89.5097,VALID,225.462,VALID,26.1784,VALID,348,VALID,0.146094,
2008-06-29, 07:13:04,VALID,1005.93,VALID,0,VALID,89.2198,VALID,227.976,VALID,26.2759,VALID,298,VALID,0.260938,
2008-06-29, 07:14:04,VALID,1005.94,VALID,0,VALID,88.0602,VALID,230.792,VALID,26.3558,VALID,342,VALID,0.699609,
2008-06-29, 07:15:04,VALID,1005.97,VALID,0,VALID,88.0602,VALID,233.708,VALID,26.4337,VALID,356,VALID,0.642969,
2008-06-29, 07:16:04,VALID,1006.02,VALID,0,VALID,87.8389,VALID,236.926,VALID,26.5096,VALID,359,VALID,0.273438,
2008-06-29, 07:17:04,VALID,1006.01,VALID,0,VALID,87.076,VALID,239.541,VALID,26.6285,VALID,345,VALID,0.320313,
2008-06-29, 07:18:04,VALID,1006.01,VALID,0,VALID,86.2216,VALID,242.256,VALID,26.7239,VALID,345,VALID,0.286328,
2008-06-29, 07:19:04,VALID,1006.02,VALID,0,VALID,86.6107,VALID,244.167,VALID,26.8429,VALID,345,VALID,0.0292969,
2008-06-29, 07:20:04,VALID,1006.04,VALID,0,VALID,85.0391,VALID,246.681,VALID,26.9793,VALID,3,VALID,0.689844,
2008-06-29, 07:21:04,VALID,1006.02,VALID,0,VALID,85.535,VALID,250.804,VALID,27.0747,VALID,11,VALID,0.0515625,
2008-06-29, 07:22:04,VALID,1006.06,VALID,0,VALID,85.0773,VALID,254.625,VALID,27.2326,VALID,11,VALID,0.289063,
2008-06-29, 07:23:04,VALID,1006.04,VALID,0,VALID,84.0016,VALID,257.642,VALID,27.4101,VALID,324,VALID,0.189844,
2008-06-29, 07:24:04,VALID,1006.08,VALID,0,VALID,83.0632,VALID,260.257,VALID,27.5618,VALID,324,VALID,0.0855469,
2008-06-29, 07:25:04,VALID,1006.06,VALID,0,VALID,83.1395,VALID,264.078,VALID,27.8173,VALID,323,VALID,0.0351563,
2008-06-29, 07:26:04,VALID,1006.1,VALID,0,VALID,81.6595,VALID,266.492,VALID,27.9321,VALID,331,VALID,0.0652344,
2008-06-29, 07:27:04,VALID,1006.07,VALID,0,VALID,80.9501,VALID,270.213,VALID,28.0317,VALID,331,VALID,0.111328,
2008-06-29, 07:28:04,VALID,1006.1,VALID,0,VALID,80.3016,VALID,273.933,VALID,28.1487,VALID,332,VALID,0.220703,
2008-06-29, 07:29:04,VALID,1006.12,VALID,0,VALID,79.409,VALID,276.146,VALID,28.205,VALID,265,VALID,0.505469,
2008-06-29, 07:30:04,VALID,1006.13,VALID,0,VALID,79.8439,VALID,279.263,VALID,28.2072,VALID,291,VALID,0.414844,
2008-06-29, 07:31:04,VALID,1006.14,VALID,0,VALID,79.142,VALID,281.576,VALID,28.1877,VALID,283,VALID,0.573828,
2008-06-29, 07:32:04,VALID,1006.16,VALID,0,VALID,79.9812,VALID,285.197,VALID,28.1682,VALID,294,VALID,0.236328,
2008-06-29, 07:33:04,VALID,1006.15,VALID,0,VALID,79.8744,VALID,288.012,VALID,28.1487,VALID,354,VALID,0.425781,
2008-06-29, 07:34:04,VALID,1006.16,VALID,0,VALID,78.5012,VALID,290.727,VALID,28.1877,VALID,336,VALID,0.652344,
2008-06-29, 07:35:04,VALID,1006.17,VALID,0,VALID,78.5241,VALID,294.046,VALID,28.1855,VALID,329,VALID,0.228125,
2008-06-29, 07:36:04,VALID,1006.18,VALID,0,VALID,78.2723,VALID,297.264,VALID,28.2462,VALID,355,VALID,0.769141,
2008-06-29, 07:37:04,VALID,1006.17,VALID,0,VALID,78.3867,VALID,300.985,VALID,28.2462,VALID,355,VALID,0.604688,
2008-06-29, 07:38:04,VALID,1006.15,VALID,0,VALID,78.5164,VALID,303.499,VALID,28.2851,VALID,351,VALID,0.329688,
2008-06-29, 07:39:04,VALID,1006.15,VALID,0,VALID,79.0733,VALID,306.717,VALID,28.322,VALID,268,VALID,0.595312,
2008-06-29, 07:40:04,VALID,1006.14,VALID,0,VALID,77.6467,VALID,310.136,VALID,28.3826,VALID,305,VALID,0.564453,
2008-06-29, 07:41:04,VALID,1006.1,VALID,0,VALID,77.5705,VALID,313.555,VALID,28.4411,VALID,298,VALID,0.176172,
2008-06-29, 07:42:04,VALID,1006.12,VALID,0,VALID,77.723,VALID,316.974,VALID,28.5364,VALID,298,VALID,0.0976563,
2008-06-29, 07:43:04,VALID,1006.11,VALID,0,VALID,77.8298,VALID,320.494,VALID,28.6166,VALID,296,VALID,0.502344,
2008-06-29, 07:44:04,VALID,1006.1,VALID,0,VALID,77.0669,VALID,324.114,VALID,28.675,VALID,20,VALID,0.445313,
2008-06-29, 07:45:04,VALID,1006.11,VALID,0,VALID,75.7014,VALID,327.433,VALID,28.675,VALID,266,VALID,0.459766,
2008-06-29, 07:46:04,VALID,1006.14,VALID,0,VALID,74.435,VALID,330.752,VALID,28.6967,VALID,292,VALID,1.03281,
2008-06-29, 07:47:04,VALID,1006.14,VALID,0,VALID,75.4191,VALID,334.472,VALID,28.5754,VALID,288,VALID,0.746094,
2008-06-29, 07:48:04,VALID,1006.16,VALID,0,VALID,77.2806,VALID,338.294,VALID,28.4974,VALID,337,VALID,0.544531,
2008-06-29, 07:49:04,VALID,1006.19,VALID,0,VALID,76.0065,VALID,341.813,VALID,28.5169,VALID,288,VALID,0.739453,
2008-06-29, 07:50:04,VALID,1006.22,VALID,0,VALID,77.8832,VALID,345.233,VALID,28.4974,VALID,311,VALID,0.267578,
2008-06-29, 07:51:04,VALID,1006.24,VALID,0,VALID,77.3874,VALID,349.255,VALID,28.5581,VALID,311,VALID,0.0210938,
2008-06-29, 07:52:04,VALID,1006.27,VALID,0,VALID,76.922,VALID,352.171,VALID,28.6339,VALID,306,VALID,0.415234,
2008-06-29, 07:53:04,VALID,1006.28,VALID,0,VALID,76.2049,VALID,355.792,VALID,28.6772,VALID,313,VALID,0.650781,
2008-06-29, 07:54:04,VALID,1006.3,VALID,0,VALID,77.1814,VALID,359.412,VALID,28.6361,VALID,314,VALID,0.382031,
2008-06-29, 07:55:04,VALID,1006.32,VALID,0,VALID,76.243,VALID,362.429,VALID,28.6945,VALID,335,VALID,0.406641,
2008-06-29, 07:56:04,VALID,1006.34,VALID,0,VALID,76.1896,VALID,366.451,VALID,28.753,VALID,317,VALID,0.426953,
2008-06-29, 07:57:04,VALID,1006.35,VALID,0,VALID,72.9931,VALID,369.77,VALID,28.7704,VALID,293,VALID,1.52773,
2008-06-29, 07:58:04,VALID,1006.38,VALID,0,VALID,75.5335,VALID,373.189,VALID,28.7119,VALID,9,VALID,0.548828,
2008-06-29, 07:59:04,VALID,1006.37,VALID,0,VALID,73.7102,VALID,377.312,VALID,28.714,VALID,279,VALID,1.26445,
2008-06-29, 08:00:04,VALID,1006.37,VALID,0,VALID,74.6181,VALID,380.631,VALID,28.675,VALID,270,VALID,0.783594,
2008-06-29, 08:01:04,VALID,1006.39,VALID,0,VALID,73.695,VALID,384.553,VALID,28.6577,VALID,300,VALID,1.28945,
2008-06-29, 08:02:04,VALID,1006.39,VALID,0,VALID,74.9003,VALID,388.072,VALID,28.5581,VALID,316,VALID,0.809375,
2008-06-29, 08:03:04,VALID,1006.41,VALID,0,VALID,74.4274,VALID,391.994,VALID,28.5971,VALID,260,VALID,0.500781,
2008-06-29, 08:04:04,VALID,1006.41,VALID,0,VALID,75.8311,VALID,395.112,VALID,28.6361,VALID,196,VALID,0.286719,
2008-06-29, 08:05:04,VALID,1006.41,VALID,0,VALID,75.7319,VALID,397.626,VALID,28.7552,VALID,326,VALID,0.503906,
2008-06-29, 08:06:04,VALID,1006.41,VALID,0,VALID,73.8094,VALID,401.85,VALID,28.8332,VALID,294,VALID,1.14727,
2008-06-29, 08:07:04,VALID,1006.41,VALID,0,VALID,74.4731,VALID,405.771,VALID,28.8917,VALID,296,VALID,0.805078,
2008-06-29, 08:08:04,VALID,1006.38,VALID,0,VALID,71.7344,VALID,409.895,VALID,28.8332,VALID,293,VALID,2.06602,
2008-06-29, 08:09:04,VALID,1006.39,VALID,0,VALID,73.7331,VALID,412.71,VALID,28.6534,VALID,282,VALID,0.791016,
2008-06-29, 08:10:04,VALID,1006.39,VALID,0,VALID,74.557,VALID,416.733,VALID,28.6361,VALID,296,VALID,0.675,
2008-06-29, 08:11:04,VALID,1006.41,VALID,0,VALID,74.5342,VALID,422.465,VALID,28.675,VALID,295,VALID,1.19727,
2008-06-29, 08:12:04,VALID,1006.41,VALID,0,VALID,74.7859,VALID,427.694,VALID,28.714,VALID,278,VALID,0.471875,
2008-06-29, 08:13:04,VALID,1006.42,VALID,0,VALID,73.6416,VALID,434.231,VALID,28.7747,VALID,294,VALID,0.792188,
2008-06-29, 08:14:04,VALID,1006.42,VALID,0,VALID,73.7255,VALID,437.65,VALID,28.7725,VALID,289,VALID,1.22305,
2008-06-29, 08:15:04,VALID,1006.4,VALID,0,VALID,73.4661,VALID,444.991,VALID,28.7704,VALID,351,VALID,1.21445,
2008-06-29, 08:16:04,VALID,1006.4,VALID,0,VALID,75.8387,VALID,453.639,VALID,28.8505,VALID,356,VALID,0.235156,
2008-06-29, 08:17:04,VALID,1006.4,VALID,0,VALID,74.9156,VALID,459.573,VALID,29.0065,VALID,252,VALID,0.35625,
2008-06-29, 08:18:04,VALID,1006.39,VALID,0,VALID,73.6111,VALID,461.986,VALID,29.1625,VALID,262,VALID,0.377734,
2008-06-29, 08:19:04,VALID,1006.4,VALID,0,VALID,75.2818,VALID,464.098,VALID,29.2795,VALID,284,VALID,0.375781,
2008-06-29, 08:20:04,VALID,1006.42,VALID,0,VALID,72.9474,VALID,467.417,VALID,29.377,VALID,295,VALID,0.953906,
2008-06-29, 08:21:04,VALID,1006.41,VALID,0,VALID,73.5195,VALID,472.746,VALID,29.3965,VALID,261,VALID,0.0132813,
2008-06-29, 08:22:04,VALID,1006.42,VALID,0,VALID,72.894,VALID,479.886,VALID,29.4745,VALID,265,VALID,0.703906,
2008-06-29, 08:23:04,VALID,1006.42,VALID,0,VALID,73.2449,VALID,485.015,VALID,29.5525,VALID,258,VALID,0.758984,
2008-06-29, 08:24:04,VALID,1006.42,VALID,0,VALID,72.9016,VALID,493.261,VALID,29.5525,VALID,282,VALID,0.546094,
2008-06-29, 08:25:04,VALID,1006.42,VALID,0,VALID,70.9715,VALID,505.53,VALID,29.533,VALID,260,VALID,1.01211,
2008-06-29, 08:26:04,VALID,1006.47,VALID,0,VALID,71.9861,VALID,524.637,VALID,29.5135,VALID,263,VALID,0.843359,
2008-06-29, 08:27:04,VALID,1006.44,VALID,0,VALID,70.8036,VALID,528.659,VALID,29.5135,VALID,300,VALID,1.64297,
2008-06-29, 08:28:04,VALID,1006.42,VALID,0,VALID,73.2754,VALID,543.945,VALID,29.3965,VALID,288,VALID,1.30977,
2008-06-29, 08:29:04,VALID,1006.45,VALID,0,VALID,75.0911,VALID,413.917,VALID,29.4138,VALID,340,VALID,1.10312,
2008-06-29, 08:30:04,VALID,1006.46,VALID,0,VALID,72.8406,VALID,387.57,VALID,29.4745,VALID,259,VALID,0.817578,
2008-06-29, 08:31:04,VALID,1006.45,VALID,0,VALID,70.9104,VALID,111.826,VALID,29.2968,VALID,281,VALID,1.06094,
2008-06-29, 08:32:04,VALID,1006.42,VALID,0,VALID,72.5507,VALID,531.375,VALID,29.0823,VALID,320,VALID,0.447656,
2008-06-29, 08:33:04,VALID,1006.46,VALID,0,VALID,73.283,VALID,536.403,VALID,29.1018,VALID,295,VALID,0.647656,
2008-06-29, 08:34:04,VALID,1006.47,VALID,0,VALID,73.5806,VALID,555.007,VALID,29.1018,VALID,334,VALID,0.600391,
2008-06-29, 08:35:04,VALID,1006.49,VALID,0,VALID,71.2766,VALID,566.27,VALID,29.143,VALID,285,VALID,1.42891,
2008-06-29, 08:36:04,VALID,1006.47,VALID,0,VALID,75.3199,VALID,579.444,VALID,29.1213,VALID,287,VALID,0.501562,
2008-06-29, 08:37:04,VALID,1006.47,VALID,0,VALID,74.0078,VALID,590.807,VALID,29.2773,VALID,325,VALID,0.335156,
2008-06-29, 08:38:04,VALID,1006.48,VALID,0,VALID,71.8259,VALID,385.257,VALID,29.3965,VALID,343,VALID,1.09922,
2008-06-29, 08:39:04,VALID,1006.5,VALID,0,VALID,72.9016,VALID,180.913,VALID,29.4745,VALID,263,VALID,0.828906,
2008-06-29, 08:40:04,VALID,1006.48,VALID,0,VALID,72.7795,VALID,441.672,VALID,29.455,VALID,257,VALID,0.627734,
2008-06-29, 08:41:04,VALID,1006.49,VALID,0,VALID,71.3071,VALID,601.266,VALID,29.494,VALID,280,VALID,0.975781,
2008-06-29, 08:42:04,VALID,1006.49,VALID,0,VALID,72.7109,VALID,589.5,VALID,29.533,VALID,246,VALID,0.566016,
2008-06-29, 08:43:04,VALID,1006.51,VALID,0,VALID,70.9638,VALID,595.132,VALID,29.5503,VALID,264,VALID,0.397266,
2008-06-29, 08:44:04,VALID,1006.54,VALID,0,VALID,71.0935,VALID,617.959,VALID,29.5113,VALID,297,VALID,1.13242,
2008-06-29, 08:45:04,VALID,1006.57,VALID,0,VALID,70.8494,VALID,636.463,VALID,29.4745,VALID,223,VALID,0.937109,
2008-06-29, 08:46:04,VALID,1006.58,VALID,0,VALID,73.7026,VALID,654.665,VALID,29.455,VALID,265,VALID,0.472656,
2008-06-29, 08:47:04,VALID,1006.58,VALID,0,VALID,72.2836,VALID,668.14,VALID,29.5525,VALID,274,VALID,1.58906,
2008-06-29, 08:48:04,VALID,1006.58,VALID,0,VALID,68.6218,VALID,680.007,VALID,29.5503,VALID,299,VALID,1.63203,
2008-06-29, 08:49:04,VALID,1006.61,VALID,0,VALID,72.6956,VALID,649.536,VALID,29.572,VALID,268,VALID,0.667578,
2008-06-29, 08:50:04,VALID,1006.59,VALID,0,VALID,71.2461,VALID,215.004,VALID,29.6305,VALID,224,VALID,1.3418,
2008-06-29, 08:51:04,VALID,1006.59,VALID,0,VALID,69.7432,VALID,444.589,VALID,29.4138,VALID,209,VALID,1.50547,
2008-06-29, 08:52:04,VALID,1006.59,VALID,0,VALID,73.0008,VALID,685.538,VALID,29.2405,VALID,226,VALID,0.608984,
2008-06-29, 08:53:04,VALID,1006.59,VALID,0,VALID,73.283,VALID,689.56,VALID,29.3185,VALID,297,VALID,0.900781,
2008-06-29, 08:54:04,VALID,1006.6,VALID,0,VALID,71.6581,VALID,182.22,VALID,29.377,VALID,283,VALID,1.79375,
2008-06-29, 08:55:04,VALID,1006.56,VALID,0,VALID,71.8335,VALID,197.506,VALID,29.2015,VALID,297,VALID,1.15703,
2008-06-29, 08:56:04,VALID,1006.53,VALID,0,VALID,72.6422,VALID,742.959,VALID,29.0845,VALID,293,VALID,1.37109,
2008-06-29, 08:57:04,VALID,1006.56,VALID,0,VALID,73.7789,VALID,682.822,VALID,29.1018,VALID,267,VALID,0.855078,
2008-06-29, 08:58:04,VALID,1006.55,VALID,0,VALID,73.6111,VALID,596.841,VALID,29.299,VALID,280,VALID,1.26914,
2008-06-29, 08:59:04,VALID,1006.52,VALID,0,VALID,72.4515,VALID,453.841,VALID,29.416,VALID,196,VALID,0.836719,
2008-06-29, 09:00:04,VALID,1006.51,VALID,0,VALID,74.7096,VALID,683.828,VALID,29.494,VALID,258,VALID,0.800391,
2008-06-29, 09:01:04,VALID,1006.5,VALID,0,VALID,71.8564,VALID,710.276,VALID,29.6523,VALID,194,VALID,0.680469,
2008-06-29, 09:02:04,VALID,1006.51,VALID,0,VALID,71.5894,VALID,128.117,VALID,29.5525,VALID,222,VALID,1.72148,
2008-06-29, 09:03:04,VALID,1006.5,VALID,0,VALID,72.7871,VALID,101.569,VALID,29.338,VALID,193,VALID,1.36484,
2008-06-29, 09:04:04,VALID,1006.5,VALID,0,VALID,73.6492,VALID,665.224,VALID,29.1235,VALID,194,VALID,0.451172,
2008-06-29, 09:05:04,VALID,1006.52,VALID,0,VALID,73.0084,VALID,666.129,VALID,29.065,VALID,264,VALID,1.4293,
2008-06-29, 09:06:04,VALID,1006.5,VALID,0,VALID,73.5043,VALID,221.238,VALID,29.1625,VALID,259,VALID,0.547656,
2008-06-29, 09:07:04,VALID,1006.46,VALID,0,VALID,70.7273,VALID,688.856,VALID,29.2015,VALID,292,VALID,2.24336,
2008-06-29, 09:08:04,VALID,1006.48,VALID,0,VALID,73.8323,VALID,682.923,VALID,29.221,VALID,301,VALID,0.952734,
2008-06-29, 09:09:04,VALID,1006.5,VALID,0,VALID,73.2754,VALID,694.89,VALID,29.416,VALID,285,VALID,0.610156,
2008-06-29, 09:10:04,VALID,1006.51,VALID,0,VALID,74.29,VALID,676.588,VALID,29.689,VALID,281,VALID,0.882031,
2008-06-29, 09:11:04,VALID,1006.51,VALID,0,VALID,72.6193,VALID,743.864,VALID,29.7865,VALID,171,VALID,0.470313,
2008-06-29, 09:12:04,VALID,1006.48,VALID,0,VALID,72.749,VALID,182.019,VALID,29.6478,VALID,218,VALID,1.47578,
2008-06-29, 09:13:04,VALID,1006.49,VALID,0,VALID,72.2379,VALID,138.073,VALID,29.5135,VALID,241,VALID,1.05273,
2008-06-29, 09:14:04,VALID,1006.52,VALID,0,VALID,70.941,VALID,117.96,VALID,29.338,VALID,225,VALID,1.00742,
2008-06-29, 09:15:04,VALID,1006.51,VALID,0,VALID,73.0999,VALID,126.709,VALID,29.221,VALID,261,VALID,1.25039,
2008-06-29, 09:16:04,VALID,1006.54,VALID,0,VALID,73.9773,VALID,177.594,VALID,29.0845,VALID,187,VALID,0.446875,
2008-06-29, 09:17:04,VALID,1006.57,VALID,0,VALID,74.7783,VALID,627.814,VALID,29.065,VALID,209,VALID,0.407422,
2008-06-29, 09:18:04,VALID,1006.58,VALID,0,VALID,72.3676,VALID,659.693,VALID,29.1842,VALID,219,VALID,1.21992,
2008-06-29, 09:19:04,VALID,1006.6,VALID,0,VALID,72.1082,VALID,676.588,VALID,29.2795,VALID,210,VALID,1.33672,
2008-06-29, 09:20:04,VALID,1006.58,VALID,0,VALID,74.6257,VALID,687.448,VALID,29.2795,VALID,192,VALID,1.03086,
2008-06-29, 09:21:04,VALID,1006.65,VALID,0,VALID,72.009,VALID,712.388,VALID,29.338,VALID,197,VALID,1.70313,
2008-06-29, 09:22:04,VALID,1006.62,VALID,0,VALID,72.3065,VALID,746.479,VALID,29.2795,VALID,202,VALID,1.53594,
2008-06-29, 09:23:04,VALID,1006.64,VALID,0,VALID,72.3065,VALID,367.055,VALID,29.26,VALID,253,VALID,1.41719,
2008-06-29, 09:24:04,VALID,1006.69,VALID,0,VALID,72.7719,VALID,109.714,VALID,29.26,VALID,287,VALID,0.7,
2008-06-29, 09:25:04,VALID,1006.7,VALID,0,VALID,72.5125,VALID,669.347,VALID,29.2015,VALID,201,VALID,0.351953,
2008-06-29, 09:26:04,VALID,1006.69,VALID,0,VALID,70.8189,VALID,708.164,VALID,29.182,VALID,264,VALID,0.892187,
2008-06-29, 09:27:04,VALID,1006.69,VALID,0,VALID,71.4902,VALID,697.907,VALID,29.221,VALID,84,VALID,0.496094,
2008-06-29, 09:28:04,VALID,1006.68,VALID,0,VALID,72.5964,VALID,692.175,VALID,29.3575,VALID,268,VALID,0.870703,
2008-06-29, 09:29:04,VALID,1006.67,VALID,0,VALID,72.894,VALID,688.353,VALID,29.5135,VALID,239,VALID,1.30195,
2008-06-29, 09:30:04,VALID,1006.68,VALID,0,VALID,69.8271,VALID,702.533,VALID,29.5135,VALID,173,VALID,1.97695,
2008-06-29, 09:31:04,VALID,1006.67,VALID,0,VALID,71.9556,VALID,620.373,VALID,29.377,VALID,188,VALID,2.07891,
2008-06-29, 09:32:04,VALID,1006.7,VALID,0,VALID,73.962,VALID,755.228,VALID,29.26,VALID,241,VALID,1.24414,
2008-06-29, 09:33:04,VALID,1006.71,VALID,0,VALID,71.3148,VALID,306.214,VALID,29.3402,VALID,255,VALID,0.948047,
2008-06-29, 09:34:04,VALID,1006.69,VALID,0,VALID,72.4667,VALID,756.133,VALID,29.455,VALID,201,VALID,1.54727,
2008-06-29, 09:35:04,VALID,1006.73,VALID,0,VALID,73.2373,VALID,783.788,VALID,29.611,VALID,252,VALID,0.822656,
2008-06-29, 09:36:04,VALID,1006.7,VALID,0,VALID,70.6968,VALID,813.454,VALID,29.689,VALID,180,VALID,0.499609,
2008-06-29, 09:37:04,VALID,1006.72,VALID,0,VALID,70.4909,VALID,172.164,VALID,29.728,VALID,56,VALID,0.852344,
2008-06-29, 09:38:04,VALID,1006.71,VALID,0,VALID,71.002,VALID,483.004,VALID,29.7693,VALID,268,VALID,0.542578,
2008-06-29, 09:39:04,VALID,1006.72,VALID,0,VALID,70.735,VALID,770.212,VALID,29.8645,VALID,272,VALID,1.36328,
2008-06-29, 09:40:04,VALID,1006.72,VALID,0,VALID,69.2931,VALID,167.035,VALID,29.884,VALID,268,VALID,1.18164,
2008-06-29, 09:41:04,VALID,1006.72,VALID,0,VALID,70.1781,VALID,777.553,VALID,29.7648,VALID,273,VALID,1.22344,
2008-06-29, 09:42:04,VALID,1006.69,VALID,0,VALID,69.2397,VALID,802.09,VALID,29.806,VALID,293,VALID,1.68047,
2008-06-29, 09:43:04,VALID,1006.73,VALID,0,VALID,70.1247,VALID,813.152,VALID,29.806,VALID,237,VALID,0.561328,
2008-06-29, 09:44:04,VALID,1006.71,VALID,0,VALID,69.2702,VALID,802.09,VALID,29.767,VALID,201,VALID,0.814062,
2008-06-29, 09:45:04,VALID,1006.69,VALID,0,VALID,69.1634,VALID,554.202,VALID,29.7085,VALID,221,VALID,2.00117,
2008-06-29, 09:46:04,VALID,1006.68,VALID,0,VALID,71.5436,VALID,225.663,VALID,29.4723,VALID,216,VALID,1.86523,
2008-06-29, 09:47:04,VALID,1006.7,VALID,0,VALID,73.5348,VALID,185.136,VALID,29.3402,VALID,229,VALID,0.430859,
2008-06-29, 09:48:04,VALID,1006.69,VALID,0,VALID,70.8418,VALID,157.683,VALID,29.299,VALID,222,VALID,0.877734,
2008-06-29, 09:49:04,VALID,1006.67,VALID,0,VALID,71.4139,VALID,810.336,VALID,29.2015,VALID,220,VALID,0.743359,
2008-06-29, 09:50:04,VALID,1006.66,VALID,0,VALID,70.9181,VALID,792.134,VALID,29.2015,VALID,279,VALID,0.642969,
2008-06-29, 09:51:04,VALID,1006.63,VALID,0,VALID,71.0478,VALID,780.871,VALID,29.3402,VALID,220,VALID,1.4543,
2008-06-29, 09:52:04,VALID,1006.62,VALID,0,VALID,70.796,VALID,767.999,VALID,29.3185,VALID,226,VALID,1.67578,
2008-06-29, 09:53:04,VALID,1006.62,VALID,0,VALID,70.6358,VALID,763.172,VALID,29.3185,VALID,182,VALID,0.921094,
2008-06-29, 09:54:04,VALID,1006.59,VALID,0,VALID,72.4667,VALID,792.235,VALID,29.533,VALID,249,VALID,0.555859,
2008-06-29, 09:55:04,VALID,1006.59,VALID,0,VALID,72.1311,VALID,168.544,VALID,29.689,VALID,250,VALID,1.45313,
2008-06-29, 09:56:04,VALID,1006.56,VALID,0,VALID,69.5372,VALID,755.731,VALID,29.6913,VALID,289,VALID,0.817969,
2008-06-29, 09:57:04,VALID,1006.53,VALID,0,VALID,70.8265,VALID,270.816,VALID,29.572,VALID,197,VALID,0.893359,
2008-06-29, 09:58:04,VALID,1006.55,VALID,0,VALID,70.857,VALID,234.714,VALID,29.4962,VALID,219,VALID,1.25273,
2008-06-29, 09:59:04,VALID,1006.55,VALID,0,VALID,71.6504,VALID,833.667,VALID,29.3965,VALID,280,VALID,0.96875,
2008-06-29, 10:00:04,VALID,1006.54,VALID,0,VALID,72.3447,VALID,117.558,VALID,29.3185,VALID,207,VALID,0.623047,
2008-06-29, 10:01:04,VALID,1006.52,VALID,0,VALID,70.7579,VALID,98.8534,VALID,29.2015,VALID,289,VALID,0.770312,
2008-06-29, 10:02:04,VALID,1006.54,VALID,0,VALID,71.7954,VALID,96.4399,VALID,29.143,VALID,280,VALID,0.924609,
2008-06-29, 10:03:04,VALID,1006.57,VALID,0,VALID,71.9175,VALID,106.798,VALID,29.026,VALID,225,VALID,1.10977,
2008-06-29, 10:04:04,VALID,1006.56,VALID,0,VALID,73.222,VALID,835.376,VALID,28.7725,VALID,216,VALID,1.14219,
2008-06-29, 10:05:04,VALID,1006.51,VALID,0,VALID,73.8628,VALID,219.73,VALID,28.6556,VALID,183,VALID,1.06367,
2008-06-29, 10:06:04,VALID,1006.48,VALID,0,VALID,74.5723,VALID,809.833,VALID,28.6144,VALID,184,VALID,0.582812,
2008-06-29, 10:07:04,VALID,1006.47,VALID,0,VALID,73.9086,VALID,188.757,VALID,28.8505,VALID,318,VALID,1.02695,
2008-06-29, 10:08:04,VALID,1006.44,VALID,0,VALID,70.9791,VALID,205.852,VALID,29.026,VALID,300,VALID,1.55156,
2008-06-29, 10:09:04,VALID,1006.43,VALID,0,VALID,71.3758,VALID,795.051,VALID,29.026,VALID,291,VALID,1.66758,
2008-06-29, 10:10:04,VALID,1006.46,VALID,0,VALID,71.536,VALID,789.017,VALID,29.026,VALID,254,VALID,1.25781,
2008-06-29, 10:11:04,VALID,1006.42,VALID,0,VALID,71.0478,VALID,791.33,VALID,29.2015,VALID,247,VALID,1.38477,
2008-06-29, 10:12:04,VALID,1006.4,VALID,0,VALID,68.309,VALID,789.017,VALID,29.4355,VALID,296,VALID,2.36836,
2008-06-29, 10:13:04,VALID,1006.39,VALID,0,VALID,69.995,VALID,787.408,VALID,29.5135,VALID,284,VALID,1.59609,
2008-06-29, 10:14:04,VALID,1006.39,VALID,0,VALID,71.475,VALID,791.43,VALID,29.689,VALID,267,VALID,1.00195,
2008-06-29, 10:15:04,VALID,1006.38,VALID,0,VALID,68.3242,VALID,790.928,VALID,29.7648,VALID,205,VALID,2.11875,
2008-06-29, 10:16:04,VALID,1006.37,VALID,0,VALID,70.056,VALID,801.487,VALID,29.7843,VALID,188,VALID,1.06289,
2008-06-29, 10:17:04,VALID,1006.36,VALID,0,VALID,72.0014,VALID,820.594,VALID,30.0011,VALID,250,VALID,0.752344,
2008-06-29, 10:18:04,VALID,1006.37,VALID,0,VALID,68.5836,VALID,845.03,VALID,30.2328,VALID,266,VALID,1.32305,